Вернуться в каталог

DMSP 5D-2 F13 DEB

АктивенSSO
NORAD 40676·DEBRIS·🇺🇸 United States

Запущен Mar 24, 1995 с Vandenberg Space Force Base

Loading…

Ближайшие Пролёты (ближайшие 24 часа)

TLE

СвежийSource: Space-Track

Эпоха: Sep 12, 2026, 08:51 UTC

1 40676U 95015FQ  26255.36934564  .00002758  00000-0  85956-3 0  9991
2 40676  98.6789 296.8405 0006719 116.8125 243.3751 14.41703663588969

Отслеживайте DMSP 5D-2 F13 DEB в реальном времени с AllMySat

Download on the App Store